[[{"header":{"parameterUnit":"m.s-1","parameterCategory":1,"la1":30.2991,"la2":30.254,"lo1":-89.0895,"lo2":-89.0444,"dy":0.0017,"dx":0.0017,"nx":28,"ny":28,"refTime":"2025-05-15T21:00:00:Z","depth":0,"parameterNumber":2,"parameterNumberName":"U-component_of_WINDS"},"data":[0,0,0,0,0,0,0,0,0,0,0,0,0,0,0,0,0,0,0,0,0,0,0,0,0,0,0,0,0,0,0,0,0,0,0,0,0,0,0,0,0,0,0,0,0,0,0,0,0,0,0,0,0,0,0,0,0,0,3.255,3.2551,0,3.2665,3.2667,3.2668,3.2673,3.2671,3.267,3.2669,3.2786,3.279,3.2795,0,0,0,0,0,0,0,0,0,0,0,0,0,3.2332,3.2336,3.255,3.2551,3.2553,3.2665,3.2667,3.2668,3.2673,3.2671,3.267,3.2668,3.2784,3.279,3.2795,0,0,0,0,0,0,0,0,0,0,0,0,0,3.2435,3.2337,3.255,3.2569,3.2572,3.2665,3.2667,3.2669,3.2673,3.2671,3.2669,3.2667,3.2783,3.2789,3.2796,3.2878,0,0,3.2816,3.2819,0,0,0,0,0,0,0,0,3.2429,3.2443,3.2565,3.2568,3.2571,3.2653,3.2633,3.2739,3.2674,3.2635,3.2669,3.2666,3.2743,3.2753,3.2779,3.2883,3.2888,3.2816,3.282,3.2823,3.2825,0,0,0,0,0,0,0,3.2422,3.2438,3.2596,3.2566,3.257,3.2571,3.2583,3.2653,3.2699,3.2638,3.2639,3.2652,3.2744,3.2773,3.2782,3.289,3.2816,3.2822,3.2826,3.2829,3.3065,3.3067,0,0,0,0,0,0,3.2411,3.2432,3.2592,3.2599,3.2494,3.2577,3.259,3.2628,3.2698,3.2707,3.2654,3.2652,3.2762,3.2774,3.2786,3.2885,3.2823,3.2829,3.2833,3.3063,3.3065,3.3068,0,0,0,0,0,0,3.2407,3.2425,3.2587,3.2516,3.2536,3.2582,3.2625,3.2632,3.266,3.271,3.2718,3.2674,3.2761,3.2777,3.2854,3.2889,3.2832,3.2838,3.306,3.3063,3.3067,3.3084,0,0,0,0,0,0,3.24,3.2424,3.2456,3.2516,3.254,3.2654,3.2627,3.2636,3.2671,3.267,3.2732,3.274,3.2761,3.2844,3.2861,3.2897,3.2843,3.3057,3.3062,3.3066,3.308,3.3087,3.3093,0,0,0,0,0,3.2392,3.2456,3.2457,3.2477,3.2581,3.2656,3.267,3.2693,3.2674,3.2706,3.2738,3.2738,3.2883,3.2852,3.2871,3.2909,3.3055,3.306,3.3065,3.3077,3.3086,3.3093,0,0,0,0,0,0,3.2398,3.2464,3.2466,3.2552,3.2598,3.2657,3.2698,3.2702,3.2754,3.2751,3.2777,3.2791,3.2868,3.2897,3.2862,3.2991,3.2967,3.2976,3.2969,3.2978,3.2985,3.2975,3.2849,0,0,0,0,0,3.2409,3.2465,3.252,3.259,3.2613,3.2652,3.2685,3.2699,3.2748,3.2768,3.2806,3.2853,3.2909,3.2946,3.3,3.3085,3.3098,3.3121,3.3127,3.3132,3.3139,3.3185,3.3195,3.3085,3.3085,3.3085,0,0,3.2433,3.2476,3.251,3.2592,3.263,3.2686,3.2668,3.2729,3.2771,3.2777,3.2852,3.2882,3.2936,3.3017,3.3055,3.3044,3.3173,3.3139,3.3143,3.3147,3.3191,3.3201,3.321,3.3089,3.3088,3.3087,0,0,3.2504,3.2543,3.2605,3.2643,3.27,3.2725,3.274,3.2798,3.2818,3.2894,3.29,3.295,3.3046,3.3084,3.3116,3.3202,3.3202,3.3219,3.3252,3.3296,3.3305,3.3312,3.3341,3.3351,3.3226,3.3226,3.3226,0,3.2526,3.2611,3.2636,3.2697,3.2732,3.2741,3.2803,3.2838,3.291,3.2934,3.2921,3.3042,3.3079,3.3168,3.3189,3.3215,3.3232,3.3211,3.3302,3.331,3.3317,3.3344,3.3355,3.3227,3.3227,3.3227,3.3227,0,3.2634,3.2693,3.2736,3.2805,3.2846,3.2907,3.294,3.2978,3.2989,3.3015,3.3091,3.3137,3.32,3.3222,3.3234,3.3313,3.3304,3.3296,3.3271,3.3329,3.3354,3.3365,3.323,3.3229,3.3229,3.3228,0,0,3.2711,3.2793,3.2808,3.2839,3.2903,3.2949,3.301,3.3072,3.3103,3.3152,3.3203,3.3284,3.3277,3.3313,3.3329,3.3367,3.3429,3.3355,3.3356,3.3365,3.3517,3.3521,3.3533,3.3431,3.3433,3.3435,3.3512,0,3.2787,3.2896,3.292,3.3013,3.3067,3.3076,3.3129,3.3173,3.32,3.3249,3.3278,3.3334,3.3321,3.3343,3.3382,3.3413,3.346,3.3409,3.3477,3.3479,3.346,3.3547,3.3552,3.3622,3.3522,3.3524,3.3526,0,3.2891,3.2942,3.3041,3.3096,3.312,3.3167,3.3225,3.3273,3.3323,3.3339,3.3379,3.339,3.3453,3.3427,3.3513,3.3477,3.3507,3.3526,3.353,3.3535,3.3504,3.3553,3.3646,3.3655,3.3542,3.3541,3.354,0,3.2934,3.3028,3.3099,3.3125,3.3193,3.3225,3.3255,3.3303,3.3338,3.3389,3.3412,3.3469,3.35,3.3544,3.357,3.3549,3.3653,3.3629,3.3667,3.3666,3.3687,3.3685,3.3783,3.371,3.3709,3.3709,3.3709,0,3.3015,3.3074,3.3119,3.3162,3.3229,3.3256,3.332,3.335,3.3392,3.3441,3.3453,3.3498,3.3531,3.358,3.3601,3.3668,3.3682,3.3696,3.37,3.3694,3.3692,3.3712,3.3707,3.3712,3.3711,3.3711,3.371,0,3.3073,3.3106,3.3183,3.3241,3.3257,3.3303,3.3351,3.3393,3.342,3.3481,3.3497,3.3538,3.3597,3.3628,3.3701,3.3715,3.3789,3.3792,3.3772,3.3774,3.3809,3.3804,3.3922,3.3938,3.3855,3.3856,3.3857,0,3.3122,3.3168,3.323,3.3264,3.3294,3.3348,3.3383,3.3412,3.3449,3.3509,3.3543,3.3603,3.3651,3.3744,3.3781,3.3837,3.3839,3.3877,3.3848,3.3839,3.3837,3.3833,3.3837,3.3881,3.3882,3.3883,3.3883,0,3.3204,3.3218,3.3269,3.3327,3.3369,3.3415,3.3461,3.3488,3.3523,3.3564,3.3624,3.3662,3.3737,3.3795,3.3853,3.3883,3.3888,3.3892,3.3904,3.3896,3.3881,3.3887,3.3784,3.3889,3.3888,3.3888,3.3888,3.3887,3.3258,3.3298,3.3348,3.3405,3.3442,3.3484,3.3526,3.3558,3.3609,3.3672,3.3686,3.3749,3.3797,3.3876,3.3908,3.3957,3.3949,3.3966,3.397,3.3973,3.3973,3.3876,3.3968,3.3968,3.3967,3.3967,3.3967,0,3.3338,3.3371,3.3423,3.3486,3.3531,3.3533,3.3584,3.362,3.3676,3.3721,3.3768,3.3837,3.3893,3.3934,3.3991,3.4022,3.4026,3.4036,3.4033,3.4039,3.3978,3.3961,3.4032,3.4032,3.4032,3.4032,3.4032,3.4032,3.3385,3.3453,3.3473,3.3559,3.3592,3.3653,3.3682,3.372,3.3756,3.3832,3.3879,3.3905,3.3948,3.4009,3.406,3.4071,3.409,3.41,3.411,3.4051,3.4044,3.4037,3.4022,3.4104,3.4104,3.4167,3.4168,3.4168]},{"header":{"parameterUnit":"m.s-1","parameterCategory":1,"la1":30.2991,"la2":30.254,"lo1":-89.0895,"lo2":-89.0444,"dy":0.0017,"dx":0.0017,"nx":28,"ny":28,"refTime":"2025-05-15T21:00:00:Z","depth":0,"parameterNumber":3,"parameterNumberName":"V-component_of_WINDS"},"data":[0,0,0,0,0,0,0,0,0,0,0,0,0,0,0,0,0,0,0,0,0,0,0,0,0,0,0,0,0,0,0,0,0,0,0,0,0,0,0,0,0,0,0,0,0,0,0,0,0,0,0,0,0,0,0,0,0,0,3.7473,3.7474,0,3.7559,3.756,3.7561,3.7545,3.7543,3.7541,3.754,3.7624,3.7628,3.7631,0,0,0,0,0,0,0,0,0,0,0,0,0,3.7287,3.7291,3.7473,3.7474,3.7475,3.7559,3.756,3.7561,3.7545,3.7543,3.7541,3.7539,3.7623,3.7627,3.7631,0,0,0,0,0,0,0,0,0,0,0,0,0,3.737,3.7292,3.7472,3.7477,3.7478,3.7559,3.756,3.7562,3.7545,3.7543,3.7541,3.7538,3.7621,3.7627,3.7632,3.7713,0,0,3.7649,3.7651,0,0,0,0,0,0,0,0,3.7366,3.7377,3.7475,3.7477,3.7478,3.7539,3.7526,3.7612,3.7546,3.752,3.754,3.7537,3.7597,3.7605,3.7626,3.7717,3.772,3.7649,3.7653,3.7655,3.7657,0,0,0,0,0,0,0,3.736,3.7373,3.7507,3.7476,3.7478,3.7473,3.7482,3.7542,3.757,3.7522,3.7521,3.7531,3.7598,3.762,3.7628,3.7721,3.7649,3.7654,3.7658,3.766,3.7882,3.7884,0,0,0,0,0,0,3.7353,3.7369,3.7504,3.7509,3.7415,3.7478,3.7488,3.7522,3.757,3.7575,3.7533,3.753,3.7612,3.7621,3.763,3.7728,3.7655,3.766,3.7663,3.7879,3.7882,3.7885,0,0,0,0,0,0,3.7349,3.7366,3.75,3.7439,3.7456,3.7484,3.7521,3.7525,3.7548,3.7578,3.7583,3.7552,3.7611,3.7623,3.7693,3.7731,3.7663,3.7668,3.7876,3.788,3.7884,3.7924,0,0,0,0,0,0,3.7344,3.7364,3.7397,3.744,3.7459,3.7563,3.7524,3.7528,3.7558,3.7555,3.7597,3.7602,3.761,3.7684,3.7698,3.7737,3.7672,3.7873,3.7878,3.7883,3.7919,3.7928,3.7936,0,0,0,0,0,3.7338,3.7403,3.7398,3.7415,3.75,3.7565,3.7576,3.7585,3.7561,3.7593,3.7612,3.76,3.7724,3.7692,3.7707,3.7748,3.7871,3.7877,3.7882,3.7915,3.7926,3.7936,0,0,0,0,0,0,3.7362,3.7409,3.7404,3.7486,3.7522,3.7562,3.7603,3.7597,3.7639,3.7635,3.7643,3.7652,3.7723,3.7742,3.7706,3.7828,3.7794,3.7803,3.7813,3.7824,3.7833,3.7827,3.7677,0,0,0,0,0,3.7378,3.7428,3.7466,3.7534,3.7553,3.7575,3.7603,3.7607,3.7644,3.7659,3.7684,3.7719,3.7765,3.7796,3.784,3.7921,3.793,3.7957,3.7965,3.7972,3.798,3.8024,3.8036,3.7904,3.7904,3.7904,0,0,3.7409,3.7441,3.7472,3.754,3.7568,3.7619,3.7588,3.7643,3.768,3.7667,3.7735,3.7754,3.7793,3.7869,3.7904,3.7887,3.8019,3.798,3.7985,3.7989,3.8031,3.8044,3.8055,3.7908,3.7908,3.7907,0,0,3.7493,3.7522,3.7583,3.7612,3.7656,3.767,3.7684,3.7726,3.7739,3.7807,3.7798,3.7842,3.7922,3.795,3.7975,3.8069,3.8059,3.8083,3.8128,3.8171,3.8181,3.819,3.8224,3.8236,3.809,3.8091,3.8091,0,3.7526,3.7604,3.7614,3.7671,3.77,3.7692,3.7752,3.7779,3.7835,3.7855,3.7836,3.7936,3.7962,3.8044,3.8067,3.8087,3.8103,3.8078,3.8179,3.8189,3.8197,3.8229,3.8242,3.8093,3.8093,3.8093,3.8092,0,3.7643,3.7697,3.774,3.7796,3.783,3.7888,3.7905,3.7938,3.7939,3.7954,3.8023,3.8054,3.8105,3.8124,3.8125,3.8206,3.8195,3.8177,3.8143,3.8212,3.8242,3.8255,3.8097,3.8096,3.8095,3.8095,0,0,3.7746,3.7806,3.7822,3.7847,3.7894,3.7935,3.7992,3.8043,3.8071,3.8109,3.8156,3.8224,3.8208,3.8236,3.824,3.8277,3.8349,3.8255,3.8256,3.8271,3.844,3.8453,3.8467,3.8343,3.8345,3.8347,3.8437,0,3.7834,3.7937,3.7947,3.8038,3.8087,3.8079,3.8128,3.8162,3.8178,3.822,3.8236,3.8285,3.8261,3.8277,3.8314,3.8333,3.8383,3.8326,3.8385,3.8387,3.8377,3.8483,3.8497,3.8581,3.8448,3.845,3.8452,0,3.7951,3.7994,3.8091,3.8131,3.8152,3.8197,3.8244,3.8285,3.8322,3.8331,3.8362,3.8361,3.8417,3.838,3.8458,3.8419,3.8443,3.8456,3.8459,3.8466,3.8424,3.8492,3.8608,3.862,3.847,3.8469,3.8468,0,3.8017,3.8099,3.8167,3.8188,3.8237,3.8268,3.829,3.8325,3.8354,3.8395,3.8414,3.846,3.8485,3.852,3.853,3.8502,3.8607,3.8571,3.8615,3.8615,3.8638,3.8636,3.8759,3.8653,3.8653,3.8652,3.8652,0,3.8115,3.8174,3.8197,3.8239,3.8305,3.8315,3.8379,3.8398,3.8429,3.8474,3.8469,3.851,3.8521,3.8563,3.8571,3.8634,3.8645,3.8653,3.8654,3.8654,3.8653,3.867,3.8665,3.8656,3.8655,3.8654,3.8654,0,3.8199,3.8217,3.8291,3.8331,3.8343,3.8389,3.8423,3.8462,3.8477,3.8533,3.8547,3.8569,3.862,3.8633,3.8692,3.8698,3.8772,3.8767,3.876,3.876,3.8803,3.8799,3.8942,3.8961,3.8842,3.8843,3.8844,0,3.8261,3.8307,3.8352,3.8382,3.8406,3.8454,3.8485,3.8495,3.8527,3.8573,3.8607,3.8656,3.8697,3.8777,3.8798,3.8843,3.884,3.8886,3.8846,3.8844,3.8841,3.8838,3.8842,3.8894,3.8896,3.8897,3.8897,0,3.8368,3.8375,3.8421,3.847,3.8507,3.8545,3.8582,3.8606,3.8622,3.8657,3.871,3.8741,3.8802,3.8852,3.8897,3.8917,3.891,3.891,3.8922,3.8923,3.8917,3.8921,3.8781,3.8907,3.8906,3.8905,3.8905,3.8904,3.8444,3.8484,3.8522,3.8573,3.8602,3.8636,3.8676,3.8696,3.874,3.8792,3.8795,3.8851,3.8886,3.8946,3.8969,3.9012,3.8998,3.9016,3.902,3.9025,3.9029,3.8909,3.902,3.902,3.9019,3.9019,3.9019,0,3.8551,3.8576,3.8622,3.8675,3.8714,3.8705,3.8745,3.8778,3.8828,3.8862,3.8902,3.8961,3.9009,3.9033,3.908,3.911,3.9107,3.9121,3.912,3.9124,3.9039,3.9024,3.9123,3.9123,3.9122,3.9122,3.9122,3.9122,3.8612,3.868,3.8691,3.8772,3.8795,3.8852,3.8876,3.8907,3.8934,3.9001,3.9041,3.9057,3.9086,3.9135,3.9178,3.9183,3.9201,3.9217,3.9221,3.9141,3.913,3.912,3.9106,3.922,3.9221,3.9302,3.9303,3.9304]}]]